FW8343 Weather Reports


time (UTC)temp
C
wind
direction
speed
KPH
gust
KPH
rain 1hr
cm
rain 24hr
cm
rain mn
cm
humidity
%
barometer
mb
20260906174018 26 198 1.6 11.3 0.00 0.00 0.00 66 1021.6
20260906173521 26 198 3.2 11.3 0.00 0.00 0.00 66 1021.7
20260906173034 26 190 4.8 11.3 0.00 0.00 0.00 66 1021.7
20260906172523 26 148 3.2 9.7 0.00 0.00 0.00 66 1021.9
20260906172019 26 193 3.2 9.7 0.00 0.00 0.00 64 1022.0
20260906171534 26 236 3.2 8.0 0.00 0.00 0.00 69 1022.1
20260906171021 25 169 1.6 8.0 0.00 0.00 0.00 67 1022.1
20260906170521 25 169 1.6 8.0 0.00 0.00 0.00 68 1022.1
20260906170034 25 169 1.6 8.0 0.00 0.00 0.00 69 1022.1
20260906165518 25 169 0.0 8.0 0.00 0.00 0.00 70 1022.2
20260906165019 25 232 1.6 9.7 0.00 0.00 0.00 71 1022.1
20260906164537 25 232 1.6 9.7 0.00 0.00 0.00 71 1022.2
20260906164018 24 232 3.2 9.7 0.00 0.00 0.00 71 1022.2
20260906163520 24 179 3.2 9.7 0.00 0.00 0.00 72 1022.1
20260906163034 24 194 3.2 8.0 0.00 0.00 0.00 75 1022.1
20260906162520 24 202 4.8 11.3 0.00 0.00 0.00 73 1022.1
20260906162019 23 183 3.2 11.3 0.00 0.00 0.00 72 1022.1
20260906161536 23 185 4.8 11.3 0.00 0.00 0.00 74 1022.1
20260906161022 23 211 1.6 11.3 0.00 0.00 0.00 74 1022.2
20260906160520 23 232 3.2 8.0 0.00 0.00 0.00 74 1022.3
20260906160037 23 232 3.2 9.7 0.00 0.00 0.00 74 1022.2
20260906155518 23 188 4.8 12.9 0.00 0.00 0.00 74 1022.3
20260906155016 23 207 4.8 12.9 0.00 0.00 0.00 76 1022.2
20260906154541 23 190 8.0 12.9 0.00 0.00 0.00 75 1022.2
20260906154022 23 192 4.8 12.9 0.00 0.00 0.00 75 1022.2
20260906153520 23 184 4.8 12.9 0.00 0.00 0.00 75 1022.3
20260906153034 22 179 4.8 9.7 0.00 0.00 0.00 75 1022.4
20260906152520 22 173 4.8 11.3 0.00 0.00 0.00 75 1022.4
20260906152021 22 180 6.4 11.3 0.00 0.00 0.00 75 1022.3
20260906151538 22 169 6.4 11.3 0.00 0.00 0.00 78 1022.4
20260906151019 22 153 6.4 11.3 0.00 0.00 0.00 78 1022.4
20260906150520 22 182 1.6 4.8 0.00 0.00 0.00 77 1022.6
20260906150041 22 123 0.0 4.8 0.00 0.00 0.00 80 1022.7
20260906145516 22 0 0.0 4.8 0.00 0.00 0.00 81 1022.5
20260906145023 22 0 0.0 1.6 0.00 0.00 0.00 82 1022.6
20260906144533 22 0 0.0 1.6 0.00 0.00 0.00 83 1022.7
20260906144019 22 0 0.0 1.6 0.00 0.00 0.00 83 1022.6
20260906143520 21 0 0.0 3.2 0.00 0.00 0.00 85 1022.4
20260906143035 21 0 0.0 4.8 0.00 0.00 0.00 86 1022.3
20260906142520 21 0 0.0 8.0 0.00 0.00 0.00 86 1022.2
20260906142025 21 180 1.6 8.0 0.00 0.00 0.00 87 1022.3
20260906141532 21 180 1.6 8.0 0.00 0.00 0.00 88 1022.2
20260906141019 21 182 3.2 8.0 0.00 0.00 0.00 88 1022.2
20260906140518 21 182 3.2 9.7 0.00 0.00 0.00 89 1022.4
20260906140034 20 182 3.2 9.7 0.00 0.00 0.00 90 1022.3
20260906135521 20 174 3.2 8.0 0.00 0.00 0.00 89 1022.3
20260906135023 20 176 3.2 8.0 0.00 0.00 0.00 92 1022.2
20260906134546 20 176 3.2 9.7 0.00 0.00 0.00 92 1022.2
20260906134024 20 176 3.2 11.3 0.00 0.00 0.00 93 1022.2
20260906133518 20 176 4.8 12.9 0.00 0.00 0.00 93 1022.4
20260906133101 20 158 4.8 12.9 0.00 0.00 0.00 94 1022.3
20260906132518 20 187 4.8 12.9 0.00 0.00 0.00 94 1022.4
20260906132022 19 175 4.8 11.3 0.00 0.00 0.00 94 1022.4
20260906131533 19 178 4.8 11.3 0.00 0.00 0.00 95 1022.4
20260906131022 19 169 6.4 11.3 0.00 0.00 0.00 95 1022.4
20260906130520 19 178 4.8 8.0 0.00 0.00 0.00 95 1022.5
20260906130037 19 176 3.2 9.7 0.00 0.00 0.00 95 1022.5
20260906125521 19 173 4.8 9.7 0.00 0.00 0.00 96 1022.5
20260906125022 19 157 3.2 9.7 0.00 0.00 0.00 96 1022.4
20260906124536 18 146 4.8 9.7 0.00 0.00 0.00 95 1022.4
20260906124018 18 176 3.2 9.7 0.00 0.00 0.00 95 1022.4
20260906123515 18 155 4.8 9.7 0.00 0.00 0.00 95 1022.4
20260906123036 18 155 3.2 11.3 0.00 0.00 0.00 96 1022.3
20260906122520 18 155 4.8 11.3 0.00 0.00 0.00 96 1022.3
20260906122020 18 171 3.2 8.0 0.00 0.00 0.00 96 1022.3
20260906121536 18 171 1.6 8.0 0.00 0.00 0.00 96 1022.3
20260906121024 18 171 1.6 8.0 0.00 0.00 0.00 96 1022.3
20260906120520 18 171 3.2 8.0 0.00 0.00 0.00 95 1022.1
20260906120038 18 171 4.8 8.0 0.00 0.00 0.00 96 1022.0
20260906115522 19 171 3.2 11.3 0.00 0.00 0.00 96 1022.0
20260906115017 19 171 4.8 11.3 0.00 0.00 0.00 96 1021.7
20260906114535 19 161 6.4 11.3 0.00 0.00 0.00 96 1021.6
20260906114018 19 175 4.8 9.7 0.00 0.00 0.00 96 1021.5
20260906113517 19 162 4.8 9.7 0.00 0.00 0.00 95 1021.4
20260906113034 18 157 3.2 11.3 0.00 0.00 0.00 95 1021.4
20260906112516 18 162 6.4 11.3 0.00 0.00 0.00 95 1021.4
20260906112020 19 172 6.4 9.7 0.00 0.00 0.00 95 1021.3
20260906111539 19 182 4.8 9.7 0.00 0.00 0.00 95 1021.3
20260906111021 18 183 4.8 12.9 0.00 0.00 0.00 95 1021.2
20260906110521 19 177 4.8 14.5 0.00 0.00 0.00 94 1021.2
20260906110038 19 171 8.0 14.5 0.00 0.00 0.00 94 1021.1
20260906105522 19 163 6.4 11.3 0.00 0.00 0.00 94 1021.2
20260906105021 19 159 3.2 11.3 0.00 0.00 0.00 94 1021.1
20260906104539 19 164 3.2 9.7 0.00 0.00 0.00 94 1021.2
20260906104018 19 164 3.2 8.0 0.00 0.00 0.00 93 1021.3
20260906103518 19 159 3.2 9.7 0.00 0.00 0.00 94 1021.1
20260906103037 19 140 3.2 9.7 0.00 0.00 0.00 94 1021.3
20260906102521 19 151 4.8 11.3 0.00 0.00 0.00 93 1021.1
20260906102021 19 166 4.8 12.9 0.00 0.00 0.00 94 1021.1
20260906101535 19 152 6.4 12.9 0.00 0.00 0.00 94 1021.1
20260906101020 19 161 6.4 12.9 0.00 0.00 0.00 94 1021.0
20260906100520 19 160 6.4 12.9 0.00 0.00 0.00 94 1020.9
20260906100039 19 161 6.4 11.3 0.00 0.00 0.00 95 1021.1
20260906095519 19 175 1.6 9.7 0.00 0.00 0.00 95 1021.1
20260906095019 18 175 3.2 9.7 0.00 0.00 0.00 95 1021.0
20260906094538 18 170 3.2 8.0 0.00 0.00 0.00 95 1021.0
20260906094018 18 130 3.2 9.7 0.00 0.00 0.00 95 1021.1
20260906093519 18 190 3.2 9.7 0.00 0.00 0.00 96 1021.1
20260906093034 18 162 1.6 8.0 0.00 0.00 0.00 96 1021.1
20260906092520 18 0 0.0 3.2 0.00 0.00 0.00 95 1021.2
20260906092023 18 0 0.0 3.2 0.00 0.00 0.00 96 1021.2
20260906091536 18 0 0.0 4.8 0.00 0.00 0.00 95 1021.2
20260906091021 18 0 0.0 6.4 0.00 0.00 0.00 96 1021.2
20260906090521 18 117 3.2 6.4 0.00 0.00 0.00 97 1021.1
20260906090039 17 166 1.6 6.4 0.00 0.00 0.00 97 1021.2
20260906085518 17 0 0.0 3.2 0.00 0.00 0.00 96 1021.1
20260906085022 17 0 0.0 4.8 0.00 0.00 0.00 97 1021.2
20260906084536 17 0 0.0 9.7 0.00 0.00 0.00 97 1021.0
20260906084020 17 150 3.2 9.7 0.00 0.00 0.00 98 1021.0
20260906083519 17 126 1.6 6.4 0.00 0.00 0.00 98 1021.2
20260906083037 16 0 0.0 1.6 0.00 0.00 0.00 97 1021.4
20260906082518 17 0 0.0 6.4 0.00 0.00 0.00 97 1021.4
20260906082016 17 0 0.0 6.4 0.00 0.00 0.00 98 1020.9
20260906081534 17 126 0.0 4.8 0.00 0.00 0.00 98 1020.7
20260906081020 16 0 0.0 3.2 0.00 0.00 0.00 98 1020.8
20260906080524 16 0 0.0 0.0 0.00 0.00 0.00 97 1021.0
20260906080038 16 0 0.0 0.0 0.00 0.00 0.00 96 1021.0
20260906075522 16 0 0.0 0.0 0.00 0.00 0.00 96 1020.9
20260906075021 16 0 0.0 0.0 0.00 0.00 0.00 96 1020.9
20260906074535 16 0 0.0 0.0 0.00 0.00 0.00 96 1021.1
20260906074021 17 0 0.0 0.0 0.00 0.00 0.00 96 1021.0
20260906073517 17 0 0.0 0.0 0.00 0.00 0.00 97 1021.0
20260906073036 17 0 0.0 0.0 0.00 0.00 0.00 97 1020.9
20260906072517 17 0 0.0 0.0 0.00 0.00 0.00 97 1021.1
20260906072026 17 0 0.0 0.0 0.00 0.00 0.00 98 1021.1
20260906071532 17 0 0.0 0.0 0.00 0.00 0.00 97 1021.1
20260906071020 17 0 0.0 0.0 0.00 0.00 0.00 97 1020.9
20260906070520 17 0 0.0 0.0 0.00 0.00 0.00 97 1021.0
20260906070035 17 0 0.0 0.0 0.00 0.00 0.00 98 1020.8
20260906065519 16 0 0.0 0.0 0.00 0.00 0.00 97 1020.9
20260906065019 16 0 0.0 0.0 0.00 0.00 0.00 97 1020.9
20260906064534 16 0 0.0 0.0 0.00 0.00 0.00 97 1021.0
20260906064018 16 0 0.0 0.0 0.00 0.00 0.00 97 1021.1
20260906063516 16 0 0.0 0.0 0.00 0.00 0.00 97 1021.2
20260906063034 16 0 0.0 0.0 0.00 0.00 0.00 97 1021.3
20260906062544 16 0 0.0 0.0 0.00 0.00 0.00 96 1021.3
20260906062021 16 0 0.0 0.0 0.00 0.00 0.00 96 1021.3
20260906061540 16 0 0.0 0.0 0.00 0.00 0.00 96 1021.3
20260906061020 16 0 0.0 0.0 0.00 0.00 0.00 96 1021.3
20260906060521 16 0 0.0 0.0 0.00 0.00 0.00 96 1021.3
20260906060037 16 0 0.0 0.0 0.00 0.00 0.00 96 1021.3
20260906055519 16 0 0.0 0.0 0.00 0.00 0.00 96 1021.0
20260906055019 16 0 0.0 0.0 0.00 0.00 0.00 95 1020.9
20260906054536 16 0 0.0 0.0 0.00 0.00 0.00 95 1020.9
20260906054022 16 0 0.0 0.0 0.00 0.00 0.00 95 1021.0
20260906053522 16 0 0.0 0.0 0.00 0.00 0.00 95 1021.0
20260906053043 16 0 0.0 0.0 0.00 0.00 0.00 95 1020.9
20260906052523 16 0 0.0 0.0 0.00 0.00 0.00 95 1021.0
20260906052020 16 0 0.0 0.0 0.00 0.00 0.00 95 1021.0
20260906051535 17 0 0.0 0.0 0.00 0.00 0.00 95 1020.9
20260906051024 17 0 0.0 0.0 0.00 0.00 0.00 95 1020.7
20260906050519 16 0 0.0 0.0 0.00 0.00 0.00 95 1020.8
20260906050046 16 0 0.0 0.0 0.00 0.00 0.00 95 1020.6
20260906045520 16 0 0.0 0.0 0.00 0.00 0.00 94 1020.8
20260906045018 16 0 0.0 0.0 0.00 0.00 0.00 94 1020.9
20260906044537 16 0 0.0 0.0 0.00 0.00 0.00 94 1021.0
20260906044021 17 0 0.0 0.0 0.00 0.00 0.00 94 1021.0
20260906043521 17 0 0.0 0.0 0.00 0.00 0.00 94 1021.0
20260906043035 17 0 0.0 0.0 0.00 0.00 0.00 94 1020.9
20260906042520 17 0 0.0 0.0 0.00 0.00 0.00 94 1020.9
20260906042020 17 0 0.0 0.0 0.00 0.00 0.00 94 1020.9
20260906041536 17 0 0.0 0.0 0.00 0.00 0.00 94 1020.9
20260906041020 17 0 0.0 0.0 0.00 0.00 0.00 94 1020.9
20260906040520 17 0 0.0 0.0 0.00 0.00 0.00 94 1020.9
20260906040041 17 0 0.0 0.0 0.00 0.00 0.00 94 1021.0
20260906035517 17 0 0.0 0.0 0.00 0.00 0.00 94 1020.8
20260906035019 17 0 0.0 0.0 0.00 0.00 0.00 94 1020.6
20260906034543 17 0 0.0 0.0 0.00 0.00 0.00 93 1020.6
20260906034020 17 0 0.0 0.0 0.00 0.00 0.00 93 1020.5
20260906033520 17 0 0.0 0.0 0.00 0.00 0.00 93 1020.5
20260906033044 17 0 0.0 0.0 0.00 0.00 0.00 93 1020.4
20260906032519 17 0 0.0 0.0 0.00 0.00 0.00 93 1020.2
20260906032020 17 0 0.0 0.0 0.00 0.00 0.00 93 1020.2
20260906031534 17 0 0.0 0.0 0.00 0.00 0.00 93 1020.1
20260906031019 17 0 0.0 0.0 0.00 0.00 0.00 93 1020.0
20260906030520 17 0 0.0 0.0 0.00 0.00 0.00 93 1020.1
20260906030040 17 0 0.0 0.0 0.00 0.00 0.00 93 1020.1
20260906025518 17 0 0.0 0.0 0.00 0.00 0.00 93 1020.2
20260906025018 17 0 0.0 0.0 0.00 0.00 0.00 92 1020.2
20260906024539 17 0 0.0 0.0 0.00 0.00 0.00 92 1020.1
20260906024018 17 0 0.0 0.0 0.00 0.00 0.00 92 1020.0
20260906023520 17 0 0.0 0.0 0.00 0.00 0.00 92 1020.0
20260906023035 17 0 0.0 0.0 0.00 0.00 0.00 92 1019.8
20260906022520 17 0 0.0 0.0 0.00 0.00 0.00 92 1019.8
20260906022020 17 0 0.0 0.0 0.00 0.00 0.00 92 1019.8
20260906021533 17 0 0.0 0.0 0.00 0.00 0.00 92 1019.8
20260906021024 17 0 0.0 0.0 0.00 0.00 0.00 92 1019.6
20260906020519 17 0 0.0 0.0 0.00 0.00 0.00 92 1019.6
20260906020043 17 0 0.0 0.0 0.00 0.00 0.00 92 1019.6
20260906015518 17 0 0.0 0.0 0.00 0.00 0.00 92 1019.5
20260906015016 17 0 0.0 0.0 0.00 0.00 0.00 92 1019.5
20260906014545 17 0 0.0 0.0 0.00 0.00 0.00 92 1019.5
20260906014019 17 0 0.0 0.0 0.00 0.00 0.00 92 1019.5
20260906013520 17 0 0.0 0.0 0.00 0.00 0.00 91 1019.6
20260906013037 18 0 0.0 0.0 0.00 0.00 0.00 91 1019.6
20260906012515 18 0 0.0 0.0 0.00 0.00 0.00 91 1019.5
20260906012015 18 0 0.0 0.0 0.00 0.00 0.00 91 1019.6
20260906011534 18 0 0.0 0.0 0.00 0.00 0.00 90 1019.3
20260906011019 18 0 0.0 0.0 0.00 0.00 0.00 90 1019.5
20260906010524 18 0 0.0 0.0 0.00 0.00 0.00 89 1019.6
20260906010034 18 0 0.0 0.0 0.00 0.00 0.00 88 1019.5
20260906005522 18 0 0.0 0.0 0.00 0.00 0.00 88 1019.5
20260906005020 18 0 0.0 0.0 0.00 0.00 0.00 88 1019.5
20260906004534 19 0 0.0 0.0 0.00 0.00 0.00 87 1019.7
20260906004024 19 0 0.0 0.0 0.00 0.00 0.00 87 1019.7
20260906003518 19 0 0.0 0.0 0.00 0.00 0.00 86 1019.6
20260906003034 20 0 0.0 0.0 0.00 0.00 0.00 86 1019.6
20260906002519 20 0 0.0 0.0 0.00 0.00 0.00 86 1019.6
20260906002021 20 0 0.0 0.0 0.00 0.00 0.00 85 1019.5
20260906001533 20 0 0.0 1.6 0.00 0.00 0.00 85 1019.5
20260906001021 20 0 0.0 1.6 0.00 0.00 0.00 84 1019.5
20260906000521 21 0 0.0 1.6 0.00 0.00 0.00 84 1019.6
20260906000037 21 0 0.0 1.6 0.00 0.00 0.00 83 1019.6
20260905235521 21 0 0.0 3.2 0.00 0.00 0.00 83 1019.6
20260905235020 21 0 0.0 3.2 0.00 0.00 0.00 82 1019.6
20260905234537 21 0 0.0 4.8 0.00 0.00 0.00 82 1019.5
20260905234017 21 0 0.0 4.8 0.00 0.00 0.00 83 1019.5
20260905233519 22 0 0.0 4.8 0.00 0.00 0.00 82 1019.6
20260905233039 22 0 0.0 4.8 0.00 0.00 0.00 82 1019.7
20260905232524 22 0 0.0 3.2 0.00 0.00 0.00 83 1019.6
20260905232020 22 0 0.0 0.0 0.00 0.00 0.00 82 1019.5
20260905231541 22 0 0.0 0.0 0.00 0.00 0.00 83 1019.4
20260905231024 22 0 0.0 1.6 0.00 0.00 0.00 84 1019.5
20260905230521 22 0 0.0 3.2 0.00 0.00 0.00 82 1019.4
20260905230041 22 0 0.0 3.2 0.00 0.00 0.00 82 1019.5
20260905225521 22 0 0.0 3.2 0.00 0.00 0.00 83 1019.5
20260905225020 22 319 0.0 1.6 0.00 0.00 0.00 83 1019.6
20260905224535 22 0 0.0 3.2 0.00 0.00 0.00 84 1019.5
20260905224020 22 0 0.0 3.2 0.00 0.00 0.00 83 1019.6
20260905223518 22 0 0.0 3.2 0.00 0.00 0.00 83 1019.5
20260905223037 22 0 0.0 1.6 0.00 0.00 0.00 83 1019.5
20260905222520 22 0 0.0 1.6 0.00 0.00 0.00 84 1019.5
20260905222023 23 0 0.0 3.2 0.00 0.00 0.00 83 1019.6
20260905221536 23 0 0.0 3.2 0.00 0.00 0.00 82 1019.7
20260905221020 23 0 0.0 1.6 0.00 0.00 0.00 82 1019.7
20260905220519 23 0 0.0 1.6 0.00 0.00 0.00 82 1019.6
20260905220035 23 175 0.0 1.6 0.00 0.00 0.00 83 1019.6
20260905215521 23 0 0.0 1.6 0.00 0.00 0.00 82 1019.5
20260905215016 23 0 0.0 1.6 0.00 0.00 0.00 82 1019.6
20260905214536 23 0 0.0 1.6 0.00 0.00 0.00 83 1019.6
20260905214019 23 0 0.0 1.6 0.00 0.00 0.00 82 1019.7
20260905213523 23 0 0.0 1.6 0.00 0.00 0.00 84 1019.7
20260905213035 23 0 0.0 1.6 0.00 0.00 0.00 84 1019.6
20260905212523 23 0 0.0 1.6 0.00 0.00 0.00 84 1019.8
20260905212019 23 0 0.0 1.6 0.00 0.00 0.00 83 1019.8
20260905211606 23 0 0.0 1.6 0.00 0.00 0.00 83 1019.9
20260905211019 23 0 0.0 3.2 0.00 0.00 0.00 84 1019.9
20260905210517 23 0 0.0 3.2 0.00 0.00 0.00 83 1019.9
20260905210035 23 0 0.0 3.2 0.00 0.00 0.00 83 1019.9
20260905205524 23 0 0.0 3.2 0.00 0.00 0.00 83 1019.8
20260905205021 23 0 0.0 3.2 0.00 0.00 0.00 84 1019.9
20260905204537 23 0 0.0 4.8 0.00 0.00 0.00 83 1020.0
20260905204020 23 0 0.0 4.8 0.00 0.00 0.00 82 1020.2
20260905203518 23 0 0.0 4.8 0.00 0.00 0.00 81 1020.2
20260905203039 23 0 0.0 4.8 0.00 0.00 0.00 82 1020.2
20260905202516 23 0 0.0 4.8 0.00 0.00 0.00 81 1020.1
20260905202016 23 0 0.0 6.4 0.00 0.00 0.00 82 1020.1
20260905201534 23 0 0.0 8.0 0.00 0.00 0.00 82 1020.1
20260905201019 23 323 0.0 8.0 0.00 0.00 0.00 82 1020.2
20260905200523 23 0 0.0 8.0 0.00 0.00 0.00 81 1020.2
20260905200036 23 0 0.0 6.4 0.00 0.00 0.00 81 1020.3
20260905195520 23 0 0.0 3.2 0.00 0.00 0.00 83 1020.3
20260905195026 23 0 0.0 4.8 0.00 0.00 0.00 82 1020.2
20260905194537 23 0 0.0 4.8 0.00 0.00 0.00 83 1020.1
20260905194019 23 153 0.0 4.8 0.00 0.00 0.00 82 1020.1
20260905193516 23 106 0.0 4.8 0.00 0.00 0.00 82 1020.1
20260905193038 23 0 0.0 3.2 0.00 0.00 0.00 83 1020.0
20260905192521 23 0 0.0 6.4 0.00 0.00 0.00 83 1020.0
20260905192022 23 0 0.0 6.4 0.00 0.00 0.00 82 1020.0
20260905191539 23 0 0.0 3.2 0.00 0.00 0.00 84 1019.9
20260905191021 23 0 0.0 3.2 0.00 0.00 0.00 82 1020.0
20260905190522 23 0 0.0 3.2 0.00 0.00 0.00 82 1020.0
20260905190032 23 0 0.0 1.6 0.00 0.00 0.00 82 1020.0
20260905185519 23 0 0.0 3.2 0.00 0.00 0.00 83 1020.1
20260905185018 22 0 0.0 3.2 0.00 0.00 0.00 84 1020.1
20260905184534 22 0 0.0 6.4 0.00 0.00 0.00 86 1020.3
20260905184016 22 0 0.0 6.4 0.00 0.00 0.00 85 1020.3
20260905183521 22 344 0.0 6.4 0.00 0.00 0.00 84 1020.4
20260905183036 22 0 0.0 6.4 0.00 0.00 0.00 85 1020.3
20260905182523 22 0 0.0 6.4 0.00 0.00 0.00 86 1020.4
20260905182020 21 323 0.0 6.4 0.00 0.00 0.00 87 1020.5
20260905181536 21 0 0.0 0.0 0.00 0.00 0.00 89 1020.3
20260905181020 21 0 0.0 0.0 0.00 0.00 0.00 90 1020.4
20260905180523 21 0 0.0 1.6 0.00 0.00 0.00 88 1020.3
20260905180036 21 0 0.0 1.6 0.00 0.00 0.00 87 1020.4
20260905175521 21 0 0.0 1.6 0.00 0.00 0.00 88 1020.4
20260905175020 21 0 0.0 3.2 0.00 0.00 0.00 89 1020.4
20260905174534 21 0 0.0 3.2 0.00 0.00 0.00 89 1020.5